Weather History for K06D - January, 2013

Change the Weather History Date:

Sunday, January 20, 2013

  Actual Average (KRUG) Record (KRUG)
Temperature  
Mean Temperature -10 °F -  
Max Temperature -4 °F 17 °F 42 °F (1964)
Min Temperature -16 °F -1 °F -37 °F (1949)
Degree Days  
Heating Degree Days 75    
Moisture  
Dew Point -18 °F    
Average Humidity 71    
Maximum Humidity 84    
Minimum Humidity 59    
Precipitation  
Precipitation 0.04 in - - ()
Sea Level Pressure  
Sea Level Pressure 30.27 in    
Wind  
Wind Speed 16 mph (NW)    
Max Wind Speed 31 mph    
Max Gust Speed 36 mph    
Visibility 8 miles    
Events Rain , Snow    
Averages and records for this station are not official NWS values.
T = Trace of Precipitation, MM = Missing Value Source: NWS Daily Summary

Daily Weather History Graph

Daily Weather History Graph

Search for Another Location

Airport or City:

Trip Planner

Search our weather history database for the weather conditions in past years. The results will help you decide how hot, cold, wet, or windy it might be!

Date:

Astronomy

Jan. 20, 2013 Rise Set
Actual Time 8:22 AM CST 5:17 PM CST
Civil Twilight 7:47 AM CST 5:52 PM CST
Nautical Twilight 7:08 AM CST 6:31 PM CST
Astronomical Twilight 6:30 AM CST 7:09 PM CST
Moon 12:21 PM CST (1/20) 2:53 AM CST (1/20)
Length of Visible Light 10h 05m
Length of Day
8h 55m
Waxing Gibbous, 66% of the Moon is Illuminated
Jan 20
Waxing Gibbous
Jan 26
Full
Feb 3
Last Quarter
Feb 10
New
Feb 17
First Quarter

Hourly Weather History & Observations

Time (CST) Temp. Windchill Dew Point Humidity Pressure Visibility Wind Dir Wind Speed Gust Speed Precip Events Conditions
12:15 AM -7.6 °F -24.6 °F -13.0 °F 77% 30.24 in 10.0 mi WNW 9.2 mph - N/A   Mostly Cloudy
12:35 AM -7.6 °F -22.1 °F -13.0 °F 77% 30.24 in 10.0 mi West 6.9 mph - N/A   Partly Cloudy
12:55 AM -7.6 °F -22.1 °F -13.0 °F 77% 30.24 in 10.0 mi West 6.9 mph - N/A   Partly Cloudy
1:15 AM -7.6 °F -22.1 °F -13.0 °F 77% 30.23 in 10.0 mi West 6.9 mph - N/A   Scattered Clouds
1:35 AM -7.6 °F -20.6 °F -13.0 °F 77% 30.24 in 10.0 mi WNW 5.8 mph - N/A   Mostly Cloudy
1:55 AM -7.6 °F -16.5 °F -13.0 °F 77% 30.24 in 10.0 mi WNW 3.5 mph - N/A   Overcast
2:15 AM -7.6 °F -23.4 °F -14.8 °F 71% 30.23 in 10.0 mi NNW 8.1 mph - N/A   Mostly Cloudy
2:35 AM -9.4 °F -18.6 °F -16.6 °F 71% 30.22 in 10.0 mi NW 3.5 mph - N/A   Mostly Cloudy
2:55 AM -11.2 °F -24.8 °F -16.6 °F 77% 30.22 in 10.0 mi West 5.8 mph - N/A   Overcast
3:15 AM -11.2 °F -20.6 °F -16.6 °F 77% 30.23 in 10.0 mi WSW 3.5 mph - N/A   Overcast
3:35 AM -11.2 °F -24.8 °F -16.6 °F 77% 30.23 in 10.0 mi SSW 5.8 mph - N/A   Overcast
3:55 AM -9.4 °F -24.3 °F -14.8 °F 77% 30.23 in 10.0 mi WSW 6.9 mph - N/A   Overcast
4:15 AM -9.4 °F -26.8 °F -14.8 °F 77% 30.23 in 10.0 mi SW 9.2 mph - N/A   Overcast
4:35 AM -7.6 °F -22.1 °F -13.0 °F 77% 30.23 in 9.0 mi WNW 6.9 mph - N/A Snow Light Snow
4:55 AM -4.0 °F -21.2 °F -11.2 °F 71% 30.23 in 5.0 mi NW 10.4 mph - 0.01 in Snow Light Snow
5:15 AM -4.0 °F -23.7 °F -11.2 °F 71% 30.23 in 9.0 mi NW 13.8 mph - N/A Snow Light Snow
5:35 AM -4.0 °F -24.5 °F -11.2 °F 71% 30.23 in 5.0 mi NW 15.0 mph - N/A Snow Light Snow
5:55 AM -4.0 °F -27.0 °F -9.4 °F 78% 30.24 in 3.0 mi NW 19.6 mph 23.0 mph 0.01 in Snow Light Snow
6:15 AM -4.0 °F -27.6 °F -9.4 °F 78% 30.25 in 2.5 mi NW 20.7 mph 25.3 mph N/A Snow Light Snow
6:35 AM -5.8 °F -31.0 °F -11.2 °F 77% 30.25 in 2.0 mi NW 23.0 mph 28.8 mph N/A Snow Light Snow
6:55 AM -5.8 °F -31.5 °F -11.2 °F 77% 30.25 in 2.5 mi NW 24.2 mph 31.1 mph N/A Snow Light Snow
7:15 AM -5.8 °F -32.0 °F -11.2 °F 77% 30.26 in 3.0 mi NW 25.3 mph - N/A Rain Light Freezing Rain
7:35 AM -7.6 °F -34.8 °F -11.2 °F 84% 30.27 in 2.0 mi NW 26.5 mph - N/A Rain Light Freezing Rain
7:55 AM -7.6 °F -36.1 °F -13.0 °F 77% 30.28 in 2.0 mi NW 29.9 mph 33.4 mph N/A Rain Light Freezing Rain
8:15 AM -9.4 °F -37.7 °F -14.8 °F 77% 30.28 in 2.5 mi NW 27.6 mph - N/A Snow Light Snow
8:35 AM -9.4 °F -36.3 °F -16.6 °F 71% 30.29 in 2.5 mi NNW 24.2 mph 29.9 mph N/A Snow Light Snow
8:55 AM -11.2 °F -39.7 °F -16.6 °F 77% 30.30 in 1.2 mi NW 26.5 mph 31.1 mph N/A Rain Light Freezing Rain
9:15 AM -11.2 °F -40.6 °F -16.6 °F 77% 30.32 in 1.8 mi NW 28.8 mph 35.7 mph N/A Snow Light Snow
9:35 AM -11.2 °F -39.2 °F -16.6 °F 77% 30.31 in 3.0 mi NW 25.3 mph 31.1 mph N/A Snow Light Snow
9:55 AM -11.2 °F -39.7 °F -16.6 °F 77% 30.33 in 1.5 mi NW 26.5 mph 31.1 mph N/A Snow Light Snow
10:15 AM -11.2 °F -41.0 °F -16.6 °F 77% 30.33 in 1.0 mi NW 29.9 mph 34.5 mph N/A Snow Light Snow
10:35 AM -11.2 °F -41.5 °F -18.4 °F 70% 30.34 in 2.0 mi NW 31.1 mph 34.5 mph 0.01 in Snow Light Snow
10:55 AM -11.2 °F -41.0 °F -18.4 °F 70% 30.35 in 2.0 mi NW 29.9 mph 35.7 mph 0.01 in Snow Light Snow
11:15 AM -11.2 °F -41.0 °F -18.4 °F 70% 30.35 in 2.0 mi NW 29.9 mph - N/A Snow Light Snow
11:35 AM -11.2 °F -41.5 °F -18.4 °F 70% 30.34 in 4.0 mi NNW 31.1 mph - 0.01 in Snow Light Snow
12:15 PM -11.2 °F -40.1 °F -18.4 °F 70% 30.31 in 8.0 mi NNW 27.6 mph - N/A Snow Light Snow
12:35 PM -9.4 °F -37.7 °F -18.4 °F 65% 30.30 in 10.0 mi NNW 27.6 mph - N/A Snow Light Snow
12:55 PM -9.4 °F -36.8 °F -18.4 °F 65% 30.30 in 10.0 mi NNW 25.3 mph 29.9 mph N/A Snow Light Snow
1:15 PM -9.4 °F -35.2 °F -18.4 °F 65% 30.31 in 10.0 mi NNW 21.9 mph 28.8 mph N/A Snow Light Snow
1:35 PM -9.4 °F -33.5 °F -18.4 °F 65% 30.31 in 10.0 mi NW 18.4 mph - N/A   Clear
1:55 PM -11.2 °F -37.0 °F -18.4 °F 70% 30.30 in 10.0 mi NNW 20.7 mph - N/A   Clear
2:15 PM -11.2 °F -38.2 °F -18.4 °F 70% 30.29 in 10.0 mi NNW 23.0 mph - N/A   Clear
2:35 PM -11.2 °F -36.4 °F -20.2 °F 64% 30.29 in 10.0 mi NW 19.6 mph 28.8 mph N/A Snow Light Snow
2:55 PM -11.2 °F -38.7 °F -22.0 °F 59% 30.28 in 10.0 mi NW 24.2 mph 31.1 mph N/A Snow Light Snow
3:15 PM -11.2 °F -38.7 °F -22.0 °F 59% 30.29 in 6.0 mi NW 24.2 mph 32.2 mph N/A Snow Light Snow
3:35 PM -13.0 °F -43.5 °F -22.0 °F 64% 30.28 in 10.0 mi NW 29.9 mph - N/A Snow Light Snow
3:55 PM -13.0 °F -38.2 °F -22.0 °F 64% 30.29 in 10.0 mi NW 18.4 mph - N/A Rain Light Freezing Rain
4:15 PM -13.0 °F -37.5 °F -22.0 °F 64% 30.29 in 10.0 mi NW 17.3 mph - N/A   Clear
4:35 PM -13.0 °F -36.0 °F -22.0 °F 64% 30.29 in 10.0 mi NW 15.0 mph - N/A   Clear
4:55 PM -13.0 °F -39.4 °F -22.0 °F 64% 30.30 in 10.0 mi NW 20.7 mph 25.3 mph N/A   Clear
5:15 PM -13.0 °F -40.6 °F -22.0 °F 64% 30.29 in 10.0 mi NW 23.0 mph 27.6 mph N/A   Clear
5:35 PM -13.0 °F -38.2 °F -22.0 °F 64% 30.28 in 10.0 mi WNW 18.4 mph 24.2 mph N/A   Clear
5:55 PM -13.0 °F -37.5 °F -22.0 °F 64% 30.28 in 10.0 mi NW 17.3 mph 24.2 mph N/A   Clear
6:15 PM -13.0 °F -38.8 °F -22.0 °F 64% 30.27 in 10.0 mi WNW 19.6 mph 23.0 mph N/A   Clear
6:35 PM -13.0 °F -40.6 °F -22.0 °F 64% 30.27 in 10.0 mi WNW 23.0 mph 27.6 mph N/A   Clear
6:55 PM -13.0 °F -37.5 °F -22.0 °F 64% 30.27 in 10.0 mi WNW 17.3 mph - N/A   Clear
7:15 PM -13.0 °F -39.4 °F -22.0 °F 64% 30.27 in 10.0 mi WNW 20.7 mph - N/A   Clear
7:35 PM -13.0 °F -41.6 °F -22.0 °F 64% 30.26 in 5.0 mi NW 25.3 mph 33.4 mph N/A Snow Light Snow
7:55 PM -13.0 °F -41.1 °F -22.0 °F 64% 30.26 in 10.0 mi NW 24.2 mph 31.1 mph N/A   Clear
8:15 PM -13.0 °F -40.6 °F -22.0 °F 64% 30.25 in 10.0 mi NW 23.0 mph - N/A Snow Light Snow
8:35 PM -13.0 °F -40.6 °F -22.0 °F 64% 30.26 in 10.0 mi NW 23.0 mph 29.9 mph N/A   Clear
8:55 PM -13.0 °F -41.6 °F -22.0 °F 64% 30.25 in 9.0 mi NW 25.3 mph 29.9 mph N/A   Clear
9:15 PM -14.8 °F -44.5 °F -22.0 °F 70% 30.25 in 10.0 mi NW 26.5 mph 29.9 mph N/A Snow Light Snow
9:35 PM -14.8 °F -44.0 °F -22.0 °F 70% 30.25 in 10.0 mi NW 25.3 mph 32.2 mph N/A Snow Light Snow
9:55 PM -14.8 °F -44.0 °F -22.0 °F 70% 30.24 in 10.0 mi NW 25.3 mph - N/A   Clear
10:15 PM -16.6 °F -45.3 °F -23.8 °F 70% 30.24 in 10.0 mi NW 23.0 mph 27.6 mph N/A   Clear
10:35 PM -16.6 °F -46.4 °F -23.8 °F 70% 30.25 in 10.0 mi NW 25.3 mph 31.1 mph N/A   Clear
10:55 PM -14.8 °F -44.0 °F -22.0 °F 70% 30.25 in 10.0 mi NW 25.3 mph 32.2 mph N/A Snow Light Snow
11:15 PM -14.8 °F -45.5 °F -22.0 °F 70% 30.25 in 10.0 mi NW 28.8 mph 35.7 mph N/A Snow Light Snow
11:35 PM -14.8 °F -44.5 °F -22.0 °F 70% 30.26 in 10.0 mi NW 26.5 mph 35.7 mph N/A Snow Light Snow
11:55 PM -14.8 °F -42.9 °F -22.0 °F 70% 30.26 in 10.0 mi NW 23.0 mph 33.4 mph N/A Snow Light Snow